This is the latest recevied weather packets stored in our database for station/object LU4EGV-13. If no packets are shown the sender has not sent any weather packets the latest 10 day(s).
| Time | Temp. | Humidity | Pressure | Rain* | Wind** | Luminosity | Snow |
|---|---|---|---|---|---|---|---|
| 1777641504 | 20° C | 62% | 1008.6 hPa | 0 mm | - | - | - |
| 1777640899 | 20° C | 63% | 1008.5 hPa | 0 mm | - | - | - |
| 1777640291 | 20° C | 67% | 1008.7 hPa | 0 mm | - | - | - |
| 1777639685 | 20° C | 70% | 1008.5 hPa | 0 mm | - | - | - |
| 1777639080 | 20° C | 73% | 1008.5 hPa | 0 mm | - | - | - |
| 1777638473 | 19.44° C | 76% | 1008.6 hPa | 0 mm | - | - | - |
| 1777637867 | 18.89° C | 78% | 1008.6 hPa | 0 mm | - | - | - |
| 1777637260 | 18.89° C | 82% | 1008.6 hPa | 0 mm | - | - | - |
| 1777636654 | 18.33° C | 83% | 1008.5 hPa | 0 mm | - | - | - |
| 1777636050 | 17.78° C | 82% | 1008.3 hPa | 0 mm | - | - | - |
| 1777635443 | 17.22° C | 82% | 1008.4 hPa | 0 mm | - | - | - |
| 1777634838 | 17.22° C | 83% | 1008.3 hPa | 0 mm | - | - | - |
| 1777634230 | 16.67° C | 84% | 1008.4 hPa | 0 mm | - | - | - |
| 1777633623 | 16.67° C | 85% | 1008.4 hPa | 0 mm | - | - | - |
| 1777633017 | 16.67° C | 85% | 1008.3 hPa | 0 mm | - | - | - |
| 1777632411 | 16.67° C | 85% | 1008.4 hPa | 0 mm | - | - | - |
| 1777631805 | 16.67° C | 85% | 1008.6 hPa | 0 mm | - | - | - |
| 1777631199 | 16.67° C | 85% | 1008.3 hPa | 0 mm | - | - | - |
| 1777630593 | 16.67° C | 86% | 1008.4 hPa | 0 mm | - | - | - |
| 1777629986 | 16.67° C | 87% | 1008.3 hPa | 0 mm | - | - | - |
| 1777629381 | 17.22° C | 86% | 1008.5 hPa | 0 mm | - | - | - |
| 1777628785 | 17.22° C | 87% | 1008.6 hPa | 0 mm | - | - | - |
| 1777628168 | 17.22° C | 88% | 1008.6 hPa | 0 mm | - | - | - |
| 1777627562 | 16.67° C | 89% | 1008.6 hPa | 0 mm | - | - | - |
| 1777626956 | 16.67° C | 90% | 1008.6 hPa | 0 mm | - | - | - |
* Rain latest hour (hover to see other rain measurements)
** Current wind speed in m/s (hover to see current wind gust speed)